| time (UTC) | temp C | wind direction | speed KPH | gust KPH | rain 1hr cm | rain 24hr cm | rain mn cm | humidity % | barometer mb |
| 20260903011522 | 19 | 165 | 4.8 | 14.5 | 0.00 | 0.53 | 0.53 | 87 | 1014.5 |
| 20260903011024 | 19 | 175 | 4.8 | 17.7 | 0.00 | 0.53 | 0.53 | 87 | 1014.4 |
| 20260903010521 | 19 | 195 | 6.4 | 17.7 | 0.00 | 0.53 | 0.53 | 87 | 1014.0 |
| 20260903010028 | 19 | 205 | 9.7 | 17.7 | 0.00 | 0.53 | 0.53 | 87 | 1014.0 |
| 20260903005522 | 19 | 194 | 6.4 | 17.7 | 0.00 | 0.53 | 0.53 | 86 | 1014.1 |
| 20260903005020 | 19 | 146 | 6.4 | 16.1 | 0.00 | 0.53 | 0.53 | 87 | 1014.2 |
| 20260903004521 | 19 | 164 | 6.4 | 20.9 | 0.00 | 0.53 | 0.53 | 86 | 1014.1 |
| 20260903004023 | 19 | 197 | 9.7 | 20.9 | 0.00 | 0.53 | 0.53 | 86 | 1014.2 |
| 20260903003520 | 19 | 121 | 6.4 | 16.1 | 0.00 | 0.53 | 0.53 | 86 | 1013.9 |
| 20260903003021 | 19 | 154 | 4.8 | 17.7 | 0.00 | 0.53 | 0.53 | 86 | 1013.9 |
| 20260903002520 | 19 | 171 | 11.3 | 19.3 | 0.00 | 0.53 | 0.53 | 86 | 1013.9 |
| 20260903002020 | 19 | 221 | 4.8 | 16.1 | 0.00 | 0.53 | 0.53 | 86 | 1014.1 |
| 20260903001520 | 19 | 195 | 8.0 | 16.1 | 0.00 | 0.53 | 0.53 | 86 | 1014.1 |
| 20260903001018 | 19 | 72 | 4.8 | 12.9 | 0.00 | 0.53 | 0.53 | 86 | 1013.8 |
| 20260903000518 | 19 | 199 | 4.8 | 20.9 | 0.00 | 0.53 | 0.53 | 86 | 1013.6 |
| 20260903000020 | 19 | 205 | 8.0 | 24.1 | 0.00 | 0.53 | 0.53 | 86 | 1013.5 |
| 20260902235518 | 20 | 181 | 6.4 | 17.7 | 0.00 | 0.53 | 0.53 | 86 | 1013.4 |
| 20260902235017 | 20 | 175 | 4.8 | 16.1 | 0.00 | 0.53 | 0.53 | 86 | 1013.6 |
| 20260902234519 | 20 | 196 | 6.4 | 16.1 | 0.00 | 0.53 | 0.53 | 86 | 1013.7 |
| 20260902234018 | 20 | 130 | 8.0 | 20.9 | 0.00 | 0.53 | 0.53 | 85 | 1013.5 |
| 20260902233520 | 20 | 200 | 11.3 | 20.9 | 0.00 | 0.53 | 0.53 | 85 | 1013.5 |
| 20260902233018 | 20 | 121 | 9.7 | 20.9 | 0.00 | 0.53 | 0.53 | 85 | 1013.4 |
| 20260902232517 | 20 | 202 | 11.3 | 20.9 | 0.00 | 0.53 | 0.53 | 85 | 1013.3 |
| 20260902232120 | 20 | 215 | 9.7 | 29.0 | 0.00 | 0.53 | 0.53 | 85 | 1013.2 |
| 20260902231534 | 20 | 166 | 6.4 | 22.5 | 0.00 | 0.53 | 0.53 | 86 | 1012.7 |
| 20260902231018 | 20 | 170 | 8.0 | 22.5 | 0.00 | 0.53 | 0.53 | 86 | 1012.6 |
| 20260902230516 | 20 | 180 | 6.4 | 29.0 | 0.00 | 0.53 | 0.53 | 86 | 1012.7 |
| 20260902230027 | 20 | 161 | 14.5 | 29.0 | 0.00 | 0.53 | 0.53 | 85 | 1012.5 |
| 20260902225516 | 20 | 146 | 11.3 | 25.7 | 0.00 | 0.53 | 0.53 | 86 | 1012.6 |
| 20260902225017 | 20 | 118 | 11.3 | 24.1 | 0.00 | 0.53 | 0.53 | 86 | 1012.7 |
| 20260902224514 | 20 | 146 | 8.0 | 17.7 | 0.00 | 0.53 | 0.53 | 86 | 1013.3 |
| 20260902224016 | 20 | 129 | 6.4 | 12.9 | 0.00 | 0.53 | 0.53 | 86 | 1013.5 |
| 20260902223511 | 20 | 142 | 4.8 | 14.5 | 0.00 | 0.53 | 0.53 | 86 | 1013.7 |
| 20260902223011 | 20 | 142 | 4.8 | 14.5 | 0.00 | 0.53 | 0.53 | 86 | 1014.0 |
| 20260902222510 | 20 | 134 | 4.8 | 11.3 | 0.00 | 0.53 | 0.53 | 85 | 1014.2 |
| 20260902222011 | 21 | 136 | 1.6 | 9.7 | 0.00 | 0.53 | 0.53 | 85 | 1014.4 |
| 20260902221517 | 21 | 155 | 3.2 | 8.0 | 0.00 | 0.53 | 0.53 | 85 | 1014.3 |
| 20260902221009 | 21 | 157 | 0.0 | 9.7 | 0.00 | 0.53 | 0.53 | 85 | 1014.7 |
| 20260902220508 | 21 | 193 | 1.6 | 9.7 | 0.00 | 0.53 | 0.53 | 84 | 1014.6 |
| 20260902220009 | 21 | 169 | 3.2 | 11.3 | 0.00 | 0.53 | 0.53 | 84 | 1014.8 |
| 20260902215510 | 21 | 160 | 3.2 | 12.9 | 0.00 | 0.53 | 0.53 | 84 | 1014.8 |
| 20260902215007 | 21 | 146 | 3.2 | 12.9 | 0.00 | 0.53 | 0.53 | 84 | 1014.8 |
| 20260902214508 | 21 | 144 | 1.6 | 11.3 | 0.00 | 0.53 | 0.53 | 84 | 1014.8 |
| 20260902214008 | 21 | 178 | 3.2 | 11.3 | 0.00 | 0.53 | 0.53 | 83 | 1014.8 |
| 20260902213507 | 21 | 192 | 1.6 | 11.3 | 0.00 | 0.53 | 0.53 | 83 | 1014.8 |
| 20260902213007 | 21 | 163 | 3.2 | 12.9 | 0.00 | 0.53 | 0.53 | 82 | 1014.8 |
| 20260902212507 | 21 | 179 | 4.8 | 12.9 | 0.00 | 0.53 | 0.53 | 82 | 1014.8 |
| 20260902212008 | 21 | 162 | 6.4 | 19.3 | 0.00 | 0.53 | 0.53 | 81 | 1014.9 |
| 20260902211508 | 21 | 189 | 12.9 | 19.3 | 0.00 | 0.53 | 0.53 | 81 | 1014.9 |
| 20260902211009 | 22 | 199 | 1.6 | 11.3 | 0.00 | 0.53 | 0.53 | 82 | 1014.9 |
| 20260902210507 | 22 | 180 | 3.2 | 11.3 | 0.00 | 0.53 | 0.53 | 82 | 1014.9 |
| 20260902210006 | 21 | 179 | 4.8 | 14.5 | 0.00 | 0.53 | 0.53 | 82 | 1014.8 |
| 20260902205605 | 22 | 129 | 6.4 | 14.5 | 0.00 | 0.53 | 0.53 | 82 | 1014.7 |
| 20260902205005 | 22 | 207 | 6.4 | 12.9 | 0.00 | 0.53 | 0.53 | 82 | 1014.9 |
| 20260902204505 | 22 | 197 | 3.2 | 12.9 | 0.00 | 0.53 | 0.53 | 81 | 1014.8 |
| 20260902204004 | 22 | 209 | 4.8 | 14.5 | 0.00 | 0.53 | 0.53 | 82 | 1014.8 |
| 20260902203504 | 22 | 166 | 6.4 | 16.1 | 0.00 | 0.53 | 0.53 | 82 | 1014.9 |
| 20260902203004 | 21 | 192 | 4.8 | 16.1 | 0.00 | 0.53 | 0.53 | 82 | 1014.9 |
| 20260902202504 | 21 | 183 | 6.4 | 14.5 | 0.00 | 0.53 | 0.53 | 82 | 1014.8 |
| 20260902202004 | 21 | 120 | 8.0 | 16.1 | 0.00 | 0.53 | 0.53 | 81 | 1014.7 |
| 20260902201502 | 21 | 181 | 8.0 | 16.1 | 0.00 | 0.53 | 0.53 | 82 | 1014.8 |
| 20260902201004 | 21 | 188 | 6.4 | 16.1 | 0.00 | 0.53 | 0.53 | 82 | 1014.8 |
| 20260902200501 | 21 | 199 | 8.0 | 16.1 | 0.00 | 0.53 | 0.53 | 83 | 1014.9 |
| 20260902200113 | 21 | 150 | 4.8 | 12.9 | 0.00 | 0.53 | 0.53 | 84 | 1014.9 |
| 20260902195601 | 21 | 159 | 4.8 | 12.9 | 0.00 | 0.53 | 0.53 | 85 | 1015.0 |
| 20260902195159 | 21 | 169 | 3.2 | 11.3 | 0.00 | 0.53 | 0.53 | 85 | 1014.9 |
| 20260902194601 | 21 | 198 | 4.8 | 16.1 | 0.00 | 0.53 | 0.53 | 84 | 1015.0 |
| 20260902194100 | 21 | 140 | 6.4 | 16.1 | 0.00 | 0.53 | 0.53 | 83 | 1015.0 |
| 20260902193602 | 21 | 157 | 4.8 | 14.5 | 0.00 | 0.53 | 0.53 | 83 | 1014.9 |
| 20260902193058 | 21 | 124 | 6.4 | 14.5 | 0.00 | 0.53 | 0.53 | 83 | 1015.1 |
| 20260902192558 | 21 | 132 | 4.8 | 11.3 | 0.00 | 0.53 | 0.53 | 83 | 1015.2 |
| 20260902192102 | 21 | 152 | 1.6 | 8.0 | 0.00 | 0.53 | 0.53 | 83 | 1015.3 |
| 20260902191557 | 21 | 144 | 1.6 | 11.3 | 0.00 | 0.53 | 0.53 | 84 | 1015.3 |
| 20260902191055 | 21 | 152 | 4.8 | 11.3 | 0.00 | 0.53 | 0.53 | 84 | 1015.2 |
| 20260902190555 | 20 | 192 | 3.2 | 11.3 | 0.00 | 0.53 | 0.53 | 85 | 1015.2 |
| 20260902190056 | 20 | 177 | 3.2 | 11.3 | 0.00 | 0.53 | 0.53 | 85 | 1015.2 |
| 20260902185556 | 20 | 182 | 3.2 | 11.3 | 0.00 | 0.53 | 0.53 | 86 | 1015.3 |
| 20260902185054 | 20 | 204 | 6.4 | 12.9 | 0.00 | 0.53 | 0.53 | 86 | 1015.3 |
| 20260902184559 | 20 | 156 | 1.6 | 9.7 | 0.00 | 0.53 | 0.53 | 86 | 1015.3 |
| 20260902184054 | 20 | 193 | 4.8 | 12.9 | 0.00 | 0.53 | 0.53 | 86 | 1015.4 |
| 20260902183554 | 20 | 190 | 3.2 | 12.9 | 0.00 | 0.53 | 0.53 | 87 | 1015.5 |
| 20260902183054 | 20 | 203 | 1.6 | 14.5 | 0.00 | 0.53 | 0.53 | 88 | 1015.6 |
| 20260902182552 | 21 | 232 | 1.6 | 14.5 | 0.00 | 0.53 | 0.53 | 90 | 1015.8 |
| 20260902182052 | 20 | 209 | 4.8 | 14.5 | 0.00 | 0.53 | 0.53 | 91 | 1015.8 |
| 20260902181550 | 20 | 271 | 0.0 | 9.7 | 0.00 | 0.53 | 0.53 | 92 | 1015.9 |
| 20260902181050 | 20 | 192 | 3.2 | 9.7 | 0.00 | 0.53 | 0.53 | 93 | 1016.0 |
| 20260902180549 | 20 | 241 | 1.6 | 11.3 | 0.00 | 0.53 | 0.53 | 94 | 1015.7 |
| 20260902180108 | 20 | 117 | 1.6 | 9.7 | 0.00 | 0.53 | 0.53 | 1015.6 | |
| 20260902175550 | 20 | 150 | 4.8 | 25.7 | 0.00 | 0.53 | 0.53 | 95 | 1015.3 |
| 20260902175048 | 20 | 204 | 9.7 | 16.1 | 0.00 | 0.53 | 0.53 | 95 | 1015.4 |
| 20260902174546 | 20 | 198 | 1.6 | 19.3 | 0.03 | 0.53 | 0.53 | 95 | 1015.5 |
| 20260902174050 | 20 | 203 | 9.7 | 19.3 | 0.05 | 0.53 | 0.53 | 95 | 1015.8 |
| 20260902173545 | 20 | 291 | 1.6 | 19.3 | 0.10 | 0.53 | 0.53 | 95 | 1015.5 |
| 20260902173044 | 20 | 150 | 8.0 | 19.3 | 0.13 | 0.53 | 0.53 | 95 | 1015.1 |
| 20260902172545 | 19 | 178 | 8.0 | 14.5 | 0.15 | 0.53 | 0.53 | 95 | 1014.9 |
| 20260902172043 | 19 | 339 | 3.2 | 9.7 | 0.18 | 0.53 | 0.53 | 95 | 1015.0 |
| 20260902171542 | 19 | 296 | 1.6 | 17.7 | 0.23 | 0.53 | 0.53 | 95 | 1015.5 |
| 20260902171042 | 19 | 297 | 11.3 | 17.7 | 0.25 | 0.53 | 0.53 | 95 | 1015.2 |
| 20260902170541 | 19 | 306 | 11.3 | 19.3 | 0.28 | 0.53 | 0.53 | 95 | 1015.0 |
| 20260902170041 | 18 | 331 | 4.8 | 19.3 | 0.30 | 0.53 | 0.53 | 95 | 1014.4 |
| 20260902165540 | 18 | 209 | 6.4 | 17.7 | 0.33 | 0.53 | 0.53 | 95 | 1014.2 |
| 20260902165038 | 19 | 160 | 4.8 | 16.1 | 0.36 | 0.51 | 0.51 | 95 | 1014.7 |
| 20260902164537 | 18 | 186 | 3.2 | 25.7 | 0.38 | 0.51 | 0.51 | 95 | 1015.2 |
| 20260902164036 | 18 | 199 | 8.0 | 25.7 | 0.41 | 0.48 | 0.48 | 95 | 1015.3 |
| 20260902163536 | 18 | 140 | 1.6 | 35.4 | 0.36 | 0.43 | 0.43 | 96 | 1015.4 |
| 20260902163036 | 18 | 162 | 11.3 | 35.4 | 0.33 | 0.38 | 0.38 | 96 | 1015.4 |
| 20260902162535 | 18 | 207 | 17.7 | 37.0 | 0.33 | 0.38 | 0.38 | 96 | 1015.5 |
| 20260902162036 | 18 | 179 | 17.7 | 32.2 | 0.30 | 0.36 | 0.36 | 96 | 1015.5 |
| 20260902161547 | 19 | 138 | 11.3 | 29.0 | 0.28 | 0.30 | 0.30 | 96 | 1015.7 |
| 20260902161034 | 19 | 203 | 12.9 | 29.0 | 0.25 | 0.28 | 0.28 | 96 | 1015.9 |
| 20260902160533 | 19 | 185 | 14.5 | 27.4 | 0.25 | 0.25 | 0.25 | 96 | 1016.4 |
| 20260902160033 | 19 | 205 | 11.3 | 24.1 | 0.23 | 0.23 | 0.23 | 96 | 1016.8 |
| 20260902155533 | 19 | 198 | 6.4 | 14.5 | 0.18 | 0.18 | 0.18 | 96 | 1016.8 |
| 20260902155033 | 19 | 191 | 1.6 | 20.9 | 0.15 | 0.15 | 0.15 | 96 | 1017.0 |
| 20260902154534 | 19 | 229 | 8.0 | 20.9 | 0.13 | 0.13 | 0.13 | 96 | 1016.8 |
| 20260902154031 | 19 | 194 | 4.8 | 16.1 | 0.08 | 0.08 | 0.08 | 96 | 1016.8 |
| 20260902153531 | 19 | 200 | 3.2 | 16.1 | 0.08 | 0.08 | 0.08 | 96 | 1016.8 |
| 20260902153030 | 18 | 195 | 0.0 | 4.8 | 0.05 | 0.05 | 0.05 | 96 | 1016.6 |
| 20260902152528 | 18 | 111 | 0.0 | 3.2 | 0.05 | 0.05 | 0.05 | 96 | 1016.5 |
| 20260902152030 | 18 | 111 | 0.0 | 3.2 | 0.03 | 0.03 | 0.03 | 96 | 1016.5 |
| 20260902151527 | 18 | 123 | 0.0 | 4.8 | 0.03 | 0.03 | 0.03 | 96 | 1016.5 |
| 20260902151029 | 18 | 123 | 1.6 | 8.0 | 0.03 | 0.03 | 0.03 | 96 | 1016.5 |
| 20260902150526 | 18 | 124 | 1.6 | 8.0 | 0.00 | 0.00 | 0.00 | 96 | 1016.6 |
| 20260902150026 | 18 | 101 | 3.2 | 9.7 | 0.00 | 0.00 | 0.00 | 96 | 1016.6 |
| 20260902145526 | 18 | 96 | 4.8 | 9.7 | 0.00 | 0.03 | 0.00 | 96 | 1016.6 |
| 20260902145026 | 18 | 83 | 4.8 | 9.7 | 0.00 | 0.03 | 0.00 | 96 | 1016.6 |
| 20260902144532 | 18 | 93 | 3.2 | 9.7 | 0.00 | 0.03 | 0.00 | 96 | 1016.7 |
| 20260902144025 | 17 | 115 | 3.2 | 6.4 | 0.00 | 0.03 | 0.00 | 96 | 1016.8 |
| 20260902143526 | 17 | 115 | 3.2 | 11.3 | 0.00 | 0.03 | 0.00 | 96 | 1016.8 |
| 20260902143026 | 17 | 115 | 4.8 | 11.3 | 0.00 | 0.03 | 0.00 | 96 | 1016.8 |
| 20260902142525 | 17 | 101 | 3.2 | 9.7 | 0.00 | 0.03 | 0.00 | 96 | 1016.9 |
| 20260902142025 | 17 | 134 | 3.2 | 8.0 | 0.00 | 0.03 | 0.00 | 96 | 1016.8 |
| 20260902141526 | 17 | 127 | 1.6 | 4.8 | 0.00 | 0.03 | 0.00 | 96 | 1016.9 |
| 20260902141024 | 17 | 96 | 1.6 | 4.8 | 0.00 | 0.03 | 0.00 | 96 | 1017.0 |
| 20260902140522 | 17 | 95 | 3.2 | 6.4 | 0.00 | 0.03 | 0.00 | 96 | 1017.0 |
| 20260902140022 | 17 | 92 | 1.6 | 6.4 | 0.00 | 0.03 | 0.00 | 96 | 1016.8 |
| 20260902135521 | 17 | 103 | 1.6 | 6.4 | 0.00 | 0.03 | 0.00 | 96 | 1016.6 |
| 20260902135021 | 18 | 107 | 3.2 | 6.4 | 0.00 | 0.03 | 0.00 | 96 | 1016.5 |
| 20260902134533 | 18 | 110 | 3.2 | 11.3 | 0.00 | 0.03 | 0.00 | 96 | 1016.7 |
| 20260902134022 | 17 | 121 | 4.8 | 11.3 | 0.00 | 0.03 | 0.00 | 96 | 1016.7 |
| 20260902133520 | 17 | 141 | 6.4 | 11.3 | 0.00 | 0.03 | 0.00 | 95 | 1016.6 |
| 20260902133023 | 17 | 135 | 4.8 | 6.4 | 0.00 | 0.03 | 0.00 | 96 | 1016.4 |
| 20260902132521 | 17 | 113 | 3.2 | 6.4 | 0.00 | 0.03 | 0.00 | 96 | 1016.4 |
| 20260902132020 | 18 | 111 | 0.0 | 9.7 | 0.00 | 0.03 | 0.00 | 96 | 1016.5 |
| 20260902131519 | 17 | 105 | 3.2 | 9.7 | 0.00 | 0.03 | 0.00 | 96 | 1016.5 |
| 20260902131019 | 17 | 103 | 3.2 | 9.7 | 0.00 | 0.03 | 0.00 | 96 | 1016.5 |
| 20260902130522 | 17 | 105 | 1.6 | 9.7 | 0.00 | 0.03 | 0.00 | 96 | 1016.5 |
| 20260902130019 | 17 | 96 | 3.2 | 9.7 | 0.00 | 0.03 | 0.00 | 96 | 1016.5 |
| 20260902125519 | 17 | 92 | 3.2 | 9.7 | 0.00 | 0.03 | 0.00 | 96 | 1016.7 |
| 20260902125022 | 17 | 95 | 1.6 | 9.7 | 0.00 | 0.03 | 0.00 | 96 | 1016.7 |
| 20260902124519 | 17 | 82 | 1.6 | 6.4 | 0.00 | 0.03 | 0.00 | 96 | 1016.7 |
| 20260902124018 | 17 | 94 | 3.2 | 9.7 | 0.00 | 0.03 | 0.00 | 96 | 1016.6 |
| 20260902123518 | 17 | 95 | 3.2 | 9.7 | 0.00 | 0.03 | 0.00 | 96 | 1016.6 |
| 20260902123020 | 17 | 84 | 3.2 | 8.0 | 0.00 | 0.03 | 0.00 | 96 | 1016.7 |
| 20260902122519 | 17 | 84 | 4.8 | 8.0 | 0.00 | 0.03 | 0.00 | 96 | 1016.6 |
| 20260902122016 | 17 | 55 | 4.8 | 11.3 | 0.00 | 0.03 | 0.00 | 96 | 1016.5 |
| 20260902121516 | 17 | 84 | 4.8 | 11.3 | 0.00 | 0.03 | 0.00 | 96 | 1016.4 |
| 20260902121017 | 16 | 76 | 4.8 | 8.0 | 0.00 | 0.03 | 0.00 | 96 | 1016.4 |
| 20260902120516 | 16 | 87 | 3.2 | 11.3 | 0.00 | 0.03 | 0.00 | 96 | 1016.4 |
| 20260902120016 | 16 | 71 | 6.4 | 11.3 | 0.00 | 0.03 | 0.00 | 96 | 1016.5 |
| 20260902115521 | 16 | 92 | 4.8 | 11.3 | 0.00 | 0.03 | 0.00 | 96 | 1016.3 |
| 20260902115015 | 16 | 86 | 6.4 | 12.9 | 0.00 | 0.03 | 0.00 | 96 | 1016.2 |
| 20260902114516 | 16 | 81 | 4.8 | 12.9 | 0.00 | 0.03 | 0.00 | 95 | 1016.3 |
| 20260902114115 | 16 | 98 | 8.0 | 12.9 | 0.00 | 0.03 | 0.00 | 95 | 1016.3 |
| 20260902113515 | 16 | 131 | 6.4 | 14.5 | 0.00 | 0.03 | 0.00 | 95 | 1016.0 |
| 20260902113031 | 16 | 106 | 4.8 | 12.9 | 0.00 | 0.03 | 0.00 | 95 | 1016.1 |
| 20260902112515 | 16 | 111 | 6.4 | 12.9 | 0.00 | 0.03 | 0.00 | 95 | 1016.2 |
| 20260902112015 | 16 | 121 | 6.4 | 16.1 | 0.00 | 0.03 | 0.00 | 95 | 1016.0 |
| 20260902111519 | 16 | 88 | 8.0 | 16.1 | 0.00 | 0.03 | 0.00 | 95 | 1016.0 |
| 20260902111013 | 16 | 120 | 4.8 | 12.9 | 0.00 | 0.03 | 0.00 | 95 | 1015.8 |
| 20260902110517 | 16 | 131 | 6.4 | 12.9 | 0.00 | 0.03 | 0.00 | 95 | 1016.1 |
| 20260902110013 | 16 | 117 | 4.8 | 12.9 | 0.00 | 0.03 | 0.00 | 95 | 1016.1 |
| 20260902105513 | 16 | 136 | 6.4 | 14.5 | 0.00 | 0.10 | 0.00 | 95 | 1016.2 |
| 20260902105015 | 16 | 101 | 6.4 | 14.5 | 0.00 | 0.10 | 0.00 | 95 | 1016.2 |
| 20260902104515 | 16 | 130 | 4.8 | 14.5 | 0.00 | 0.10 | 0.00 | 95 | 1016.3 |
| 20260902104013 | 16 | 114 | 4.8 | 12.9 | 0.00 | 0.10 | 0.00 | 95 | 1016.4 |
| 20260902103512 | 16 | 101 | 4.8 | 12.9 | 0.00 | 0.10 | 0.00 | 95 | 1016.4 |
| 20260902103024 | 16 | 97 | 4.8 | 12.9 | 0.00 | 0.10 | 0.00 | 95 | 1016.5 |
| 20260902102512 | 16 | 98 | 6.4 | 12.9 | 0.00 | 0.10 | 0.00 | 95 | 1016.5 |
| 20260902102012 | 16 | 101 | 3.2 | 11.3 | 0.00 | 0.10 | 0.00 | 95 | 1016.3 |
| 20260902101514 | 16 | 72 | 1.6 | 11.3 | 0.00 | 0.10 | 0.00 | 95 | 1016.3 |
| 20260902101010 | 16 | 128 | 3.2 | 12.9 | 0.00 | 0.10 | 0.00 | 95 | 1016.4 |
| 20260902100510 | 16 | 163 | 3.2 | 12.9 | 0.00 | 0.10 | 0.00 | 95 | 1016.3 |
| 20260902100015 | 17 | 111 | 1.6 | 14.5 | 0.00 | 0.10 | 0.00 | 95 | 1016.4 |
| 20260902095509 | 17 | 107 | 3.2 | 14.5 | 0.00 | 0.18 | 0.00 | 95 | 1016.3 |
| 20260902095008 | 17 | 99 | 3.2 | 12.9 | 0.00 | 0.18 | 0.00 | 95 | 1016.3 |
| 20260902094508 | 17 | 113 | 6.4 | 12.9 | 0.00 | 0.18 | 0.00 | 95 | 1016.2 |
| 20260902094009 | 17 | 76 | 3.2 | 11.3 | 0.00 | 0.18 | 0.00 | 95 | 1016.2 |
| 20260902093507 | 17 | 112 | 1.6 | 11.3 | 0.00 | 0.18 | 0.00 | 95 | 1016.2 |
| 20260902093006 | 17 | 140 | 3.2 | 11.3 | 0.00 | 0.18 | 0.00 | 99 | 1016.1 |
| 20260902092506 | 17 | 109 | 1.6 | 11.3 | 0.00 | 0.18 | 0.00 | 95 | 1016.2 |
| 20260902092005 | 17 | 141 | 4.8 | 11.3 | 0.00 | 0.18 | 0.00 | 95 | 1016.2 |
| 20260902091504 | 17 | 126 | 4.8 | 14.5 | 0.00 | 0.18 | 0.00 | 95 | 1016.1 |
| 20260902091004 | 17 | 128 | 6.4 | 14.5 | 0.00 | 0.18 | 0.00 | 95 | 1016.1 |
| 20260902090503 | 17 | 88 | 3.2 | 11.3 | 0.00 | 0.18 | 0.00 | 95 | 1016.1 |
| 20260902090003 | 17 | 119 | 1.6 | 9.7 | 0.00 | 0.18 | 0.00 | 95 | 1016.1 |
| 20260902085502 | 17 | 119 | 1.6 | 8.0 | 0.00 | 0.30 | 0.00 | 95 | 1016.1 |
| 20260902085002 | 17 | 91 | 1.6 | 6.4 | 0.00 | 0.30 | 0.00 | 95 | 1016.1 |
| 20260902084502 | 17 | 128 | 1.6 | 11.3 | 0.00 | 0.30 | 0.00 | 95 | 1016.0 |
| 20260902084002 | 17 | 101 | 4.8 | 11.3 | 0.00 | 0.30 | 0.00 | 95 | 1015.9 |
| 20260902083505 | 17 | 101 | 1.6 | 12.9 | 0.00 | 0.30 | 0.00 | 95 | 1015.9 |
| 20260902083001 | 17 | 109 | 6.4 | 12.9 | 0.00 | 0.30 | 0.00 | 95 | 1015.8 |
| 20260902082501 | 17 | 89 | 1.6 | 12.9 | 0.00 | 0.30 | 0.00 | 95 | 1015.7 |
| 20260902082101 | 17 | 121 | 3.2 | 12.9 | 0.00 | 0.30 | 0.00 | 95 | 1015.6 |
| 20260902081606 | 17 | 92 | 4.8 | 11.3 | 0.00 | 0.30 | 0.00 | 95 | 1015.7 |
| 20260902081059 | 18 | 101 | 3.2 | 6.4 | 0.00 | 0.30 | 0.00 | 95 | 1015.7 |
| 20260902080559 | 18 | 91 | 1.6 | 6.4 | 0.00 | 0.30 | 0.00 | 95 | 1015.7 |
| 20260902080059 | 18 | 120 | 1.6 | 6.4 | 0.00 | 0.30 | 0.00 | 95 | 1015.6 |
| 20260902075558 | 18 | 106 | 0.0 | 6.4 | 0.00 | 0.38 | 0.00 | 95 | 1015.7 |
| 20260902075102 | 18 | 141 | 1.6 | 4.8 | 0.00 | 0.38 | 0.00 | 95 | 1015.7 |
| 20260902074600 | 18 | 107 | 0.0 | 9.7 | 0.00 | 0.38 | 0.00 | 95 | 1015.7 |
| 20260902074058 | 18 | 107 | 1.6 | 9.7 | 0.00 | 0.38 | 0.00 | 95 | 1015.6 |
| 20260902073557 | 18 | 133 | 3.2 | 12.9 | 0.00 | 0.38 | 0.00 | 95 | 1015.6 |
| 20260902073059 | 18 | 121 | 6.4 | 12.9 | 0.00 | 0.38 | 0.00 | 95 | 1015.4 |
| 20260902072557 | 18 | 139 | 4.8 | 12.9 | 0.00 | 0.38 | 0.00 | 95 | 1015.5 |
| 20260902072056 | 18 | 119 | 4.8 | 12.9 | 0.00 | 0.38 | 0.00 | 95 | 1015.5 |
| 20260902071600 | 18 | 133 | 4.8 | 14.5 | 0.00 | 0.38 | 0.00 | 95 | 1015.6 |
| 20260902071055 | 18 | 146 | 6.4 | 16.1 | 0.00 | 0.38 | 0.00 | 95 | 1015.6 |
| 20260902070555 | 18 | 138 | 6.4 | 16.1 | 0.00 | 0.38 | 0.00 | 95 | 1015.7 |
| 20260902070054 | 18 | 136 | 9.7 | 14.5 | 0.00 | 0.38 | 0.00 | 95 | 1015.7 |
| 20260902065556 | 18 | 116 | 3.2 | 12.9 | 0.00 | 0.41 | 0.00 | 95 | 1015.8 |
| 20260902065054 | 18 | 131 | 4.8 | 12.9 | 0.00 | 0.41 | 0.00 | 95 | 1015.8 |
| 20260902064601 | 18 | 145 | 6.4 | 12.9 | 0.00 | 0.41 | 0.00 | 95 | 1015.8 |
| 20260902064053 | 18 | 121 | 3.2 | 9.7 | 0.00 | 0.41 | 0.00 | 95 | 1015.9 |
| 20260902063553 | 18 | 87 | 3.2 | 9.7 | 0.00 | 0.41 | 0.00 | 95 | 1015.9 |
| 20260902063054 | 18 | 95 | 3.2 | 11.3 | 0.00 | 0.41 | 0.00 | 95 | 1015.9 |
| 20260902062556 | 18 | 120 | 1.6 | 9.7 | 0.00 | 0.41 | 0.00 | 95 | 1016.0 |
| 20260902062052 | 18 | 108 | 3.2 | 11.3 | 0.00 | 0.41 | 0.00 | 95 | 1016.0 |
| 20260902061604 | 18 | 136 | 4.8 | 11.3 | 0.00 | 0.41 | 0.00 | 95 | 1015.9 |
| 20260902061051 | 18 | 114 | 4.8 | 12.9 | 0.00 | 0.41 | 0.00 | 95 | 1016.0 |
| 20260902060550 | 18 | 134 | 4.8 | 14.5 | 0.00 | 0.41 | 0.00 | 95 | 1016.0 |
| 20260902060054 | 18 | 135 | 4.8 | 14.5 | 0.00 | 0.41 | 0.00 | 95 | 1016.0 |
| 20260902055553 | 18 | 130 | 6.4 | 14.5 | 0.00 | 0.43 | 0.00 | 95 | 1016.0 |
| 20260902055050 | 18 | 139 | 6.4 | 14.5 | 0.00 | 0.43 | 0.00 | 95 | 1015.8 |
| 20260902054552 | 18 | 109 | 6.4 | 11.3 | 0.00 | 0.43 | 0.00 | 95 | 1015.9 |
| 20260902054048 | 18 | 141 | 4.8 | 11.3 | 0.00 | 0.43 | 0.00 | 95 | 1016.0 |
| 20260902053548 | 18 | 109 | 4.8 | 11.3 | 0.00 | 0.43 | 0.00 | 95 | 1015.9 |
| 20260902053048 | 18 | 109 | 3.2 | 8.0 | 0.00 | 0.43 | 0.00 | 95 | 1015.8 |
| 20260902052546 | 18 | 101 | 3.2 | 9.7 | 0.00 | 0.43 | 0.00 | 95 | 1015.8 |
| 20260902052046 | 18 | 103 | 4.8 | 9.7 | 0.00 | 0.43 | 0.00 | 95 | 1015.8 |
| 20260902051546 | 18 | 116 | 1.6 | 4.8 | 0.00 | 0.43 | 0.00 | 95 | 1015.7 |
| 20260902051047 | 18 | 93 | 1.6 | 11.3 | 0.00 | 0.43 | 0.00 | 95 | 1015.8 |
| 20260902050545 | 18 | 99 | 3.2 | 9.7 | 0.00 | 0.43 | 0.00 | 95 | 1015.7 |
| 20260902050047 | 18 | 98 | 1.6 | 9.7 | 0.00 | 0.43 | 0.00 | 95 | 1015.7 |
| 20260902045543 | 18 | 129 | 1.6 | 9.7 | 0.00 | 0.43 | 0.00 | 95 | 1015.6 |
| 20260902045047 | 18 | 107 | 1.6 | 9.7 | 0.00 | 0.43 | 0.00 | 95 | 1015.5 |
| 20260902044543 | 18 | 111 | 1.6 | 9.7 | 0.00 | 0.43 | 0.00 | 95 | 1015.4 |
| 20260902044043 | 18 | 112 | 3.2 | 9.7 | 0.00 | 0.43 | 0.00 | 95 | 1015.3 |
| 20260902043545 | 18 | 100 | 3.2 | 6.4 | 0.00 | 0.43 | 0.00 | 95 | 1015.3 |
| 20260902043042 | 18 | 87 | 3.2 | 6.4 | 0.00 | 0.43 | 0.00 | 95 | 1015.4 |
| 20260902042542 | 18 | 133 | 1.6 | 3.2 | 0.00 | 0.43 | 0.00 | 95 | 1015.5 |
| 20260902042042 | 18 | 138 | 0.0 | 4.8 | 0.00 | 0.43 | 0.00 | 95 | 1015.5 |
| 20260902041541 | 18 | 138 | 1.6 | 6.4 | 0.00 | 0.43 | 0.00 | 95 | 1015.5 |
| 20260902041042 | 18 | 139 | 1.6 | 6.4 | 0.00 | 0.43 | 0.00 | 95 | 1015.4 |
| 20260902040542 | 18 | 137 | 1.6 | 4.8 | 0.00 | 0.43 | 0.00 | 94 | 1015.3 |
| 20260902040040 | 18 | 137 | 0.0 | 6.4 | 0.00 | 0.43 | 0.00 | 94 | 1015.3 |
| 20260902035538 | 18 | 137 | 3.2 | 6.4 | 0.00 | 0.43 | 0.43 | 94 | 1015.2 |
| 20260902035037 | 18 | 120 | 0.0 | 6.4 | 0.00 | 0.43 | 0.43 | 94 | 1015.1 |
| 20260902034537 | 18 | 101 | 1.6 | 6.4 | 0.00 | 0.43 | 0.43 | 94 | 1015.0 |
| 20260902034037 | 18 | 110 | 1.6 | 12.9 | 0.00 | 0.43 | 0.43 | 94 | 1015.0 |
| 20260902033539 | 18 | 134 | 6.4 | 12.9 | 0.00 | 0.43 | 0.43 | 94 | 1015.1 |
| 20260902033037 | 18 | 142 | 3.2 | 9.7 | 0.00 | 0.43 | 0.43 | 94 | 1015.1 |
| 20260902032537 | 18 | 96 | 4.8 | 9.7 | 0.00 | 0.43 | 0.43 | 94 | 1015.1 |
| 20260902032038 | 18 | 80 | 3.2 | 11.3 | 0.00 | 0.43 | 0.43 | 94 | 1015.2 |
| 20260902031536 | 18 | 102 | 3.2 | 11.3 | 0.00 | 0.43 | 0.43 | 94 | 1015.2 |
| 20260902031036 | 18 | 127 | 3.2 | 12.9 | 0.00 | 0.43 | 0.43 | 94 | 1015.1 |
| 20260902030535 | 18 | 150 | 4.8 | 12.9 | 0.00 | 0.43 | 0.43 | 94 | 1015.3 |
| 20260902030036 | 18 | 106 | 4.8 | 9.7 | 0.00 | 0.43 | 0.43 | 94 | 1015.3 |
| 20260902025535 | 18 | 99 | 3.2 | 12.9 | 0.00 | 0.43 | 0.43 | 94 | 1015.2 |
| 20260902025035 | 18 | 141 | 6.4 | 14.5 | 0.00 | 0.43 | 0.43 | 94 | 1015.1 |
| 20260902024535 | 18 | 132 | 6.4 | 14.5 | 0.00 | 0.43 | 0.43 | 94 | 1015.1 |
| 20260902024034 | 18 | 141 | 6.4 | 12.9 | 0.00 | 0.43 | 0.43 | 94 | 1015.0 |
| 20260902023534 | 18 | 134 | 6.4 | 16.1 | 0.00 | 0.43 | 0.43 | 94 | 1015.1 |
| 20260902023042 | 18 | 138 | 11.3 | 16.1 | 0.00 | 0.43 | 0.43 | 94 | 1015.1 |
| 20260902022534 | 18 | 123 | 11.3 | 16.1 | 0.00 | 0.43 | 0.43 | 94 | 1015.3 |
| 20260902022034 | 18 | 130 | 6.4 | 16.1 | 0.00 | 0.43 | 0.43 | 94 | 1015.4 |
| 20260902021534 | 18 | 106 | 4.8 | 11.3 | 0.00 | 0.43 | 0.43 | 94 | 1015.5 |
| 20260902021033 | 18 | 130 | 3.2 | 12.9 | 0.00 | 0.43 | 0.43 | 94 | 1015.6 |
| 20260902020533 | 18 | 91 | 6.4 | 12.9 | 0.00 | 0.43 | 0.43 | 94 | 1015.6 |
| 20260902020032 | 18 | 104 | 6.4 | 14.5 | 0.00 | 0.43 | 0.43 | 94 | 1015.6 |
| 20260902015531 | 18 | 101 | 6.4 | 14.5 | 0.00 | 0.43 | 0.43 | 94 | 1015.5 |
| 20260902015032 | 18 | 114 | 6.4 | 12.9 | 0.00 | 0.43 | 0.43 | 94 | 1015.3 |
| 20260902014541 | 18 | 112 | 4.8 | 9.7 | 0.00 | 0.43 | 0.43 | 94 | 1015.4 |
| 20260902014033 | 18 | 117 | 3.2 | 9.7 | 0.00 | 0.43 | 0.43 | 94 | 1015.4 |
| 20260902013531 | 18 | 148 | 3.2 | 9.7 | 0.00 | 0.43 | 0.43 | 94 | 1015.3 |
| 20260902013031 | 18 | 138 | 3.2 | 9.7 | 0.00 | 0.43 | 0.43 | 95 | 1015.4 |
| 20260902012531 | 18 | 107 | 1.6 | 11.3 | 0.00 | 0.43 | 0.43 | 94 | 1015.3 |
| 20260902012034 | 18 | 89 | 4.8 | 12.9 | 0.00 | 0.43 | 0.43 | 94 | 1015.1 |
| 20260902011542 | 18 | 79 | 6.4 | 12.9 | 0.00 | 0.43 | 0.43 | 94 | 1015.1 |